Weather in Singleton

Australia     32°33′28″S   151°10′21″E
temp.,
°C
wind,
m/s
gust,
m/s
humid.,
%
clouds,
%
prec.,
mm/h
press.,
hPa
HPBL,
m
17 may, mon
mon1701:00+7nw512620 0.0 1021425
04:00+6nw512650 0.0 1022407
07:00+6nw411680 0.0 1024347
10:00+12wnw57540 0.0 1024523
13:00+16wnw23501 0.0 1023801
16:00+15e11628 0.0 102328
19:00+10ene22795 0.0 102621
22:00+8ne118635 0.0 102713
18 may, tue
tue1801:00+9nw117991 0.0 102715
04:00+9wnw128073 0.0 102756
07:00+6nw11913 0.0 102921
10:00+14w11620 0.0 1029348
13:00+18ese12480 0.0 10271315
16:00+16sse11640 0.0 102638
19:00+10ene11810 0.0 102811
22:00+8n11920 0.0 102812
19 may, wed
wed1901:00+7nw11940 0.0 102810
04:00+6nw11950 0.0 102815
07:00+6nw11930 0.0 103024
10:00+14wnw23610 0.0 1029395
13:00+18w24480 0.0 1026898
16:00+17sw11620 0.0 102611
19:00+11ne22772 0.0 102717
22:00+9nw118838 0.0 102811
20 may, thu
thu2001:00+8nw11905 0.0 102712
04:00+7nw2188100 0.0 102721
07:00+7nw228370 0.0 102846
10:00+15wnw365871 0.0 1028407
13:00+18wnw4648100 0.0 1025955
16:00+17nw3757100 0.0 1025255
19:00+12nnw116735 0.0 102613
22:00+9nw117778 0.0 102810
21 may, fri
fri2101:00+8nnw11835 0.0 102810
04:00+7nw11869 0.0 102810
07:00+9wnw1174100 0.0 102954
10:00+12w1268100 0.0 1030222
13:00+11nw1183100 0.2 102859
16:00+12n118794 0.4 102853
19:00+12n0090100 0.2 102812
22:00+12sw009486 0.2 102911